www.pogodaiklimat.ru

Погода и климат >> Архив погоды >> Чили >> Pudahuel


ПОГОДА в Pudahuel

  • Прогноз погоды в Pudahuel
  • Монитор погоды в Pudahuel
  • Климат города

АРХИВ ПОГОДЫ в Pudahuel

Время (UTC), дата Ветер
(напр.,м/с)
 
Видим.   Явления Облачность Т
(С)
Тd
(С)
f
(%)
Тe
(С)
Тes
(С)
Комфортность P
(гПа)
Po
(гПа)
Тmin
(С)
Tmax
(С)
R
(мм)
R24
(мм)
S
(см)
00 14.09 Ю 5 10 км ясно +13.4 +6.8 64 +12 +12 1016.9 961.4 +21.6
03 14.09 Ю 3 10 км 3/0
[]
+9.1 +5.7 79 +7 +7 1018.7 962.3
06 14.09 Ю 3 8000 м дым ясно +7.1 +5.6 90 +4 +4 1018.4 961.6
09 14.09 Ю 3 400 м местами туман поземный 8/8 60 м
[St]
+4.6 +4.3 98 +1 +1 1017.9 960.6
12 14.09 0 300 м туман 9/0
[]
+5.0 +5.0 100 1018.6 961.4 +4.2
15 14.09 ЮВ 4 6000 м мгла {туман} 1/1 120 м
[St]
+11.5 +7.1 74 +9 +16 1017.5 961.6
18 14.09 Ю 6 8000 м мгла ясно +15.4 +7.2 58 +14 +20 1015.1 960.0
21 14.09 Ю 7 8000 м мгла ясно +14.5 +7.3 62 +12 +13 1014.4 959.2
00 15.09 ЮВ 5 7000 м мгла ясно +9.8 +7.2 84 +7 +7 1016.4 960.2 +16.7
03 15.09 Ю 4 5000 м дымка 8/8 240 м
[St]
+9.3 +7.4 88 +7 +7 1016.6 960.3
06 15.09 Ю 3 3000 м дымка 10/10 150 м
[St]
+9.0 +8.0 93 +7 +7 1016.1 959.8
09 15.09 Ю 3 3000 м дымка 10/10 150 м
[St]
+8.8 +7.8 93 +6 +6 1015.2 958.9
12 15.09 0 5000 м дымка 10/3 150 м
[Cu Sc]
+9.5 +7.6 88 1016.6 960.3 +8.8
15 15.09 ЮЗ 4 7000 м мгла 10/10 300 м
[Cu Sc]
+10.4 +7.0 79 +8 +8 1018.3 962.1
18 15.09 Ю 3 7000 м мгла 10/10 300 м
[St]
+10.1 +7.4 83 +8 +8 1019.3 963.0
21 15.09 Ю 4 7000 м мгла 10/10 450 м
[Cu Sc]
+9.7 +7.2 84 +7 +7 1020.2 963.8
00 16.09 Ю 2 8000 м мгла 10/10 450 м
[Sc]
+10.1 +5.9 75 +9 +9 1021.1 964.7 +10.8 0.0
03 16.09 штиль 0 8000 м мгла 9/9 600 м
[Sc]
+9.8 +6.1 78 +9 +9 1020.9 964.5
06 16.09 З 1 8000 м мгла 8/8 900 м
[Sc]
+9.0 +6.1 82 +8 +8 1021.3 964.7
09 16.09 В 2 8000 м мгла 5/5 750 м
[Sc]
+8.7 +6.0 83 +7 +7 1021.2 964.5
12 16.09 0 6000 м мгла ясно +5.6 +3.8 88 1023.2 965.6 +4.2
15 16.09 0 10 км ясно +13.6 +4.7 55 1020.8 964.9
18 16.09 0 10 км 3/0
[Ci fib]
+18.5 +3.7 37 1018.4 963.6
21 16.09 Ю 4 10 км 9/0
[As trans Cs]
+18.3 +6.0 44 +18 +19 1018.5 963.6
00 17.09 Ю 5 10 км 8/0
[Ac trans]
+13.8 +6.4 61 +12 +12 1020.4 964.8 +20.0
03 17.09 ЮВ 4 10 км 8/0
[Ac trans]
+10.5 +5.1 69 +8 +8 1021.6 965.3
06 17.09 штиль 0 10 км 8/0
[Ac trans]
+9.4 +5.0 74 +9 +9 1020.9 964.4
09 17.09 0 10 км 8/0
[Ac trans]
+9.1 +5.1 76 1019.0 962.5
12 17.09 З 2 10 км 10/0
[Ac As]
+9.2 +5.6 78 +8 +9 1020.1 963.6 +8.7
15 17.09 0 10 км 10/0
[Ac As]
+14.5 +6.6 59 1018.4 963.0
18 17.09 ЮВ 5 10 км 10/0
[Ac As]
+16.6 +5.8 49 +16 +18 1016.4 961.5
21 17.09 Ю 4 10 км 10/0
[Ac As]
+17.4 +4.3 42 +17 +18 1014.0 959.4
00 18.09 ЮВ 3 10 км 10/0
[Ac As]
+14.2 +6.4 59 +13 +13 1015.0 959.5 +18.4
03 18.09 Ю 2 10 км 9/0
[Ac und]
+12.7 +7.5 71 +12 +12 1016.2 960.4
06 18.09 В 3 8000 м дождь 10/3 900 м
[Sc As op]
+11.1 +9.6 90 +9 +9 1019.0 962.7 5
09 18.09 С 3 10 км {дождь} 9/4 900 м
[Cu Sc]
+11.1 +8.1 82 +9 +9 1017.7 961.5
12 18.09 С 4 8000 м мгла {ливн. осадки, дождь} 8/8 1200 м
[Cu Sc]
+11.4 +9.8 90 +9 +9 1017.8 961.8 +10.0 6
15 18.09 З 3 10 км слабый ливневой дождь 9/9 900 м
[Cu Sc]
+14.1 +9.1 72 +13 +14 1017.1 961.7
18 18.09 Ю 3 10 км {ливн. осадки} 8/8 750 м
[Cu Sc]
+15.5 +10.1 70 +15 +18 1016.8 961.7 0.2
21 18.09 З 8 10 км 6/6 1500 м
[Sc]
+15.3 +4.8 49 +14 +14 1017.8 962.6
00 19.09 Ю 5 10 км 6/6 1500 м
[Cu med, cong]
+12.0 +5.7 65 +10 +10 1020.3 964.3 +16.7 0.2
03 19.09 штиль 0 10 км 5/5 1200 м
[Sc]
+9.7 +5.7 76 +9 +9 1021.4 964.8
06 19.09 штиль 0 10 км 6/6 1200 м
[Sc]
+7.7 +5.7 87 +7 +7 1022.3 965.4
09 19.09 ЮЗ 2 10 км 4/3 1200 м
[Sc Ci fib]
+6.2 +4.5 89 +4 +4 1021.7 964.5
12 19.09 СВ 2 8000 м мгла 8/0
[Ac trans]
+6.6 +5.1 90 +4 +5 1021.9 964.8 +5.5
15 19.09 СВ 2 10 км 10/0
[Ac trans Cs]
+11.2 +6.3 72 +10 +18 1020.2 964.1
18 19.09 СВ 2 10 км 10/0
[Ac trans Cs]
+14.5 +6.7 59 +14 +22 1019.0 963.6
21 19.09 ЮЗ 3 10 км 10/0
[]
+15.6 +5.6 51 +15 +17 1017.9 962.7
00 20.09 Ю 2 10 км 9/0
[Ac und]
+12.8 +7.5 70 +12 +12 1019.7 963.9 +16.1
03 20.09 З 2 8000 м дым 9/0
[Ac und]
+11.1 +8.6 85 +10 +10 1019.9 963.8
06 20.09 0 8000 м мгла 9/0
[Ac und]
+10.0 +8.0 87 1018.6 962.3
09 20.09 0 8000 м дым 8/0
[Ac trans Ci]
+9.6 +7.8 89 1017.7 961.4
12 20.09 штиль 0 5000 м дымка 9/0
[Ac trans Ci]
+9.7 +8.1 90 +9 +10 1019.2 962.8 +8.5
15 20.09 С 1 6000 м мгла 9/0
[Ac trans Cs]
+13.3 +8.7 74 +14 +22 1019.5 963.8
18 20.09 ЮЗ 2 8000 м мгла 9/0
[Ac trans Cs]
+17.3 +6.5 49 +18 +27 1017.6 962.8
21 20.09 Ю 3 10 км 9/0
[Ac trans Ci fib]
+19.0 +6.3 43 +20 +21 1017.4 962.9

 

Местоположение метеостанции Pudahuel (Чили): широта -33.38 долгота -70.78 высота над уровнем моря 474 м.

В архиве по умолчанию представлена погода в Pudahuel за последнюю неделю. Архивные данные за месяц целиком и за предыдущие месяцы, начиная с января 2011 года, Вы можете получить, выбрав интересующий диапазон дат из раскрывающегося списка и нажав кнопку "Ввод!".


*Определитесь, кто Вы:
робот инопланетянин человек

Внимание! Время в таблицах - всемирное. Для получения местного времени необходимо прибавить поправку, которая в Pudahuel равна -4 ч.

Смотрите также архив погоды в соседних городах и на ближайших метеорологических станциях:

Погода в Santiago (Чили) (11 км)
Погода в San Antonio (Чили) (79 км)
Погода в Santo Domingo (Чили) (83 км)
Погода в Punta Angeles (Чили) (89 км)
Погода в Curico (Чили) (181 км)
Погода в Mendoza (Аргентина) (196 км)
Погода в San Martin (Аргентина) (223 км)
Погода в San Rafael (Аргентина) (257 км)
Погода в Malargue (Аргентина) (260 км)
Погода в San Juan (Аргентина) (313 км)

Пояснения к столбцам:

Ветер - указаны скорость ветра в м/с - средняя за 10 мин, порывы в срок и между сроками (в фигурных скобках) и направление, откуда дует ветер: С - северный, СВ - северо-восточный, В - восточный, ЮВ - юго-восточный, Ю - южный, ЮЗ - юго-западный, З - западный, СЗ - северо-западный.
Видимость - горизонтальная дальность видимости в метрах или километрах. При видимости от 1 до 10 км при отсутствии осадков обычно наблюдается дымка, при ухудшении видимости до 1 км и менее - туман. В сухую погоду видимость может ухудшаться дымом, пылью или мглою.
Явления - указаны атмосферные явления, наблюдавшиеся в срок или в последний час перед сроком; фигурными скобками обозначены явления, наблюдавшиеся между сроками (за 1-3 часа до срока); квадратными скобками обозначены град или гололедные отложения с указанием их диаметра в мм.
Облачность - указаны через наклонную черту общая и нижняя облачность в баллах и высота нижней границы облаков в метрах; квадратными скобками обозначены формы облаков: Ci - перистые, Cs - перисто-слоистые, Cc - перисто-кучевые, Ac - высококучевые, As - высокослоистые, Sc - слоисто-кучевые, Ns - слоисто-дождевые, Cu - кучевые, Cb - кучево-дождевые. Подробнее классификацию облаков см. в Атласе облаков (PDF).
T - Температура воздуха - температура, измеренная на высоте 2 м над землей.
Td - Температура точки росы - температура, при понижении до которой содержащийся в воздухе водяной пар достигнет насыщения.
f - Относительная влажность воздуха - влажноcть воздуха, измеренная на высоте 2 м над землей.
Te - Эффективная температура - температура, которую ощущает одетый по сезону человек в тени. Характеристика душности погоды. При расчете учитывается влияние влажности воздуха и скорости ветра на теплоощущения человека.
Tes - Эффективная температура на солнце - температура, которую ощущает человек, с поправкой на солнечный нагрев. Характеристика знойности погоды. Зависит от высоты солнца над горизонтом, облачности и скорости ветра. Ночью, в пасмурную погоду, а также при ветре 12 м/с и более поправка равна нулю.
P - Атмосферное давление - приведенное к уровню моря атмосферное давление.
Po - Атмосферное давление - измеренное на уровне метеостанции атмосферное давление.
Tmin - Минимальная температура - минимум температуры воздуха на высоте 2 м над землей.
Tmax - Максимальная температура - максимум температуры воздуха на высоте 2 м над землей.
R - Количество осадков - Количество выпавших осадков за период времени, мм. При наведении курсора мыши на число - период времени, за который выпало указанное количество осадков.
R24 - Количество осадков - Количество выпавших осадков за 24 часа, мм.
S - Снежный покров - Высота снежного покрова, см. При наведении курсора мыши на число - состояние снежного покрова и степень покрытия местности в баллах.